• Em Portugal
  • Lista de países
  • Para 7 dias
  • Temperatura da água
  • Mapas de satélite
  • Mapa do tempo
  • Widgets de tempo
  • user-avatar
    Iniciar Sessão

    Previsão horária em São Juão

    Hoje, 17 Dezembro, Domingo

    Tempo Temperatura Precipitação Vento Pressão Humidade
    00:00 +35°C° 0 mm 7 m/s 701 mmHg 16%
    01:00 +34°C° 0 mm 8 m/s 701 mmHg 19%
    02:00 +31°C° 0 mm 10 m/s 703 mmHg 23%
    03:00 +27°C° 0 mm 11 m/s 704 mmHg 27%
    04:00 +24°C° 0 mm 12 m/s 706 mmHg 30%
    05:00 +23°C° 0 mm 11 m/s 706 mmHg 29%
    06:00 +22°C° 0 mm 9 m/s 707 mmHg 27%
    07:00 +21°C° 0 mm 8 m/s 708 mmHg 26%
    08:00 +22°C° 0 mm 7 m/s 708 mmHg 23%
    09:00 +23°C° 0 mm 7 m/s 708 mmHg 21%
    10:00 +24°C° 0 mm 6 m/s 709 mmHg 18%
    11:00 +26°C° 0 mm 6 m/s 708 mmHg 17%
    12:00 +27°C° 0 mm 5 m/s 708 mmHg 16%
    13:00 +28°C° 0 mm 5 m/s 707 mmHg 15%
    14:00 +28°C° 0 mm 5 m/s 707 mmHg 15%
    15:00 +28°C° 0 mm 4 m/s 707 mmHg 15%
    16:00 +28°C° 0 mm 4 m/s 706 mmHg 14%
    17:00 +28°C° 0 mm 4 m/s 707 mmHg 15%
    18:00 +27°C° 0 mm 3 m/s 707 mmHg 15%
    19:00 +26°C° 0 mm 3 m/s 707 mmHg 16%
    20:00 +26°C° 0 mm 3 m/s 708 mmHg 17%
    21:00 +25°C° 0 mm 2 m/s 708 mmHg 17%
    22:00 +25°C° 0 mm 2 m/s 708 mmHg 18%
    23:00 +24°C° 0 mm 2 m/s 708 mmHg 18%

    Amanhã, 18 Dezembro, Segunda-feira

    Tempo Temperatura Precipitação Vento Pressão Humidade
    00:00 +24°C° 0 mm 1 m/s 707 mmHg 19%
    01:00 +23°C° 0 mm 1 m/s 707 mmHg 20%
    02:00 +23°C° 0 mm 1 m/s 706 mmHg 21%
    03:00 +23°C° 0 mm 1 m/s 706 mmHg 22%
    04:00 +23°C° 0 mm 2 m/s 706 mmHg 23%
    05:00 +24°C° 0 mm 2 m/s 706 mmHg 23%
    06:00 +26°C° 0 mm 3 m/s 706 mmHg 22%
    07:00 +27°C° 0 mm 3 m/s 706 mmHg 22%
    08:00 +29°C° 0 mm 4 m/s 705 mmHg 20%
    09:00 +32°C° 0 mm 4 m/s 705 mmHg 18%
    10:00 +34°C° 0 mm 4 m/s 705 mmHg 16%
    11:00 +35°C° 0 mm 4 m/s 704 mmHg 15%
    12:00 +36°C° 0 mm 4 m/s 704 mmHg 14%
    13:00 +37°C° 0 mm 4 m/s 703 mmHg 13%
    14:00 +37°C° 0 mm 4 m/s 703 mmHg 13%
    15:00 +37°C° 0 mm 4 m/s 702 mmHg 13%
    16:00 +37°C° 0 mm 3 m/s 702 mmHg 13%
    17:00 +36°C° 0 mm 3 m/s 703 mmHg 15%
    18:00 +35°C° 0 mm 4 m/s 703 mmHg 17%
    19:00 +34°C° 0 mm 4 m/s 704 mmHg 19%
    20:00 +33°C° 0 mm 4 m/s 704 mmHg 22%
    21:00 +33°C° 0 mm 4 m/s 705 mmHg 24%
    22:00 +32°C° 0 mm 4 m/s 705 mmHg 27%
    23:00 +30°C° 0 mm 4 m/s 705 mmHg 29%

    Depois de amanhã, 19 Dezembro, Terça-feira

    Tempo Temperatura Precipitação Vento Pressão Humidade
    00:00 +30°C° 0 mm 4 m/s 704 mmHg 31%
    01:00 +29°C° 0 mm 3 m/s 704 mmHg 33%
    02:00 +28°C° 0 mm 3 m/s 704 mmHg 35%
    03:00 +28°C° 0 mm 3 m/s 704 mmHg 38%
    04:00 +27°C° 0 mm 3 m/s 704 mmHg 40%
    05:00 +28°C° 0 mm 3 m/s 704 mmHg 37%
    06:00 +29°C° 0 mm 3 m/s 705 mmHg 34%
    07:00 +30°C° 0 mm 3 m/s 705 mmHg 30%
    08:00 +31°C° 0 mm 2 m/s 705 mmHg 27%
    09:00 +34°C° 0 mm 2 m/s 705 mmHg 24%
    10:00 +35°C° 0 mm 2 m/s 705 mmHg 21%
    11:00 +36°C° 0 mm 2 m/s 704 mmHg 20%
    12:00 +37°C° 0 mm 3 m/s 704 mmHg 18%
    13:00 +38°C° 0 mm 4 m/s 704 mmHg 17%
    14:00 +38°C° 0 mm 4 m/s 703 mmHg 17%
    15:00 +38°C° 0 mm 4 m/s 703 mmHg 16%
    16:00 +38°C° 0 mm 4 m/s 703 mmHg 16%
    17:00 +37°C° 0 mm 3 m/s 703 mmHg 18%
    18:00 +37°C° 0 mm 3 m/s 704 mmHg 19%
    19:00 +36°C° 0 mm 3 m/s 704 mmHg 21%
    20:00 +35°C° 0 mm 3 m/s 704 mmHg 26%
    21:00 +34°C° 0 mm 4 m/s 705 mmHg 31%
    22:00 +32°C° 0 mm 4 m/s 705 mmHg 36%
    23:00 +32°C° 0 mm 4 m/s 705 mmHg 40%

    20 Dezembro, Quarta-feira

    Tempo Temperatura Precipitação Vento Pressão Humidade
    00:00 +30°C° 0 mm 4 m/s 704 mmHg 43%
    01:00 +30°C° 0 mm 3 m/s 704 mmHg 46%
    02:00 +29°C° 0 mm 3 m/s 704 mmHg 47%
    03:00 +29°C° 0 mm 3 m/s 704 mmHg 47%
    04:00 +29°C° 0 mm 3 m/s 704 mmHg 48%
    05:00 +30°C° 0 mm 3 m/s 704 mmHg 43%
    06:00 +31°C° 0 mm 3 m/s 704 mmHg 38%
    07:00 +33°C° 0 mm 3 m/s 705 mmHg 33%
    08:00 +34°C° 0 mm 3 m/s 704 mmHg 30%
    09:00 +36°C° 0 mm 3 m/s 704 mmHg 26%
    10:00 +37°C° 0 mm 3 m/s 703 mmHg 22%
    11:00 +38°C° 0 mm 3 m/s 703 mmHg 20%
    12:00 +40°C° 0 mm 4 m/s 702 mmHg 18%
    13:00 +41°C° 0 mm 4 m/s 701 mmHg 17%
    14:00 +41°C° 0 mm 4 m/s 701 mmHg 17%
    15:00 +41°C° 0 mm 4 m/s 700 mmHg 17%
    16:00 +42°C° 0 mm 4 m/s 700 mmHg 17%
    17:00 +41°C° 0 mm 4 m/s 700 mmHg 19%
    18:00 +38°C° 0 mm 4 m/s 700 mmHg 21%
    19:00 +37°C° 0 mm 4 m/s 701 mmHg 23%
    20:00 +36°C° 0 mm 5 m/s 701 mmHg 27%
    21:00 +35°C° 0 mm 5 m/s 701 mmHg 31%
    22:00 +34°C° 0 mm 5 m/s 701 mmHg 35%
    23:00 +34°C° 0 mm 5 m/s 701 mmHg 38%

    21 Dezembro, Quinta-feira

    Tempo Temperatura Precipitação Vento Pressão Humidade
    00:00 +33°C° 0 mm 4 m/s 701 mmHg 41%
    01:00 +32°C° 0 mm 4 m/s 701 mmHg 44%
    02:00 +31°C° 0 mm 3 m/s 701 mmHg 44%
    03:00 +30°C° 0 mm 3 m/s 701 mmHg 45%
    04:00 +30°C° 0 mm 2 m/s 701 mmHg 46%
    05:00 +30°C° 0 mm 3 m/s 702 mmHg 46%
    06:00 +32°C° 0 mm 5 m/s 702 mmHg 45%
    07:00 +32°C° 0 mm 6 m/s 703 mmHg 45%
    08:00 +33°C° 0,2 mm 7 m/s 702 mmHg 45%
    09:00 +34°C° 0,2 mm 7 m/s 702 mmHg 44%
    10:00 +34°C° 0,2 mm 7 m/s 702 mmHg 44%
    11:00 +35°C° 0,8 mm 7 m/s 702 mmHg 42%
    12:00 +36°C° 0,8 mm 6 m/s 701 mmHg 39%
    13:00 +36°C° 0,8 mm 6 m/s 701 mmHg 37%
    14:00 +36°C° 0,6 mm 5 m/s 700 mmHg 36%
    15:00 +37°C° 0,6 mm 5 m/s 700 mmHg 36%
    16:00 +37°C° 0,6 mm 4 m/s 700 mmHg 36%
    17:00 +36°C° 1,1 mm 4 m/s 700 mmHg 39%
    18:00 +35°C° 1,1 mm 3 m/s 700 mmHg 42%
    19:00 +34°C° 1,1 mm 3 m/s 700 mmHg 45%
    20:00 +33°C° 0,8 mm 3 m/s 701 mmHg 48%
    21:00 +31°C° 0,8 mm 2 m/s 701 mmHg 51%
    22:00 +31°C° 0,8 mm 2 m/s 701 mmHg 54%
    23:00 +30°C° 0,7 mm 2 m/s 700 mmHg 55%

    22 Dezembro, Sexta-feira

    Tempo Temperatura Precipitação Vento Pressão Humidade
    00:00 +30°C° 0,7 mm 1 m/s 700 mmHg 56%
    01:00 +29°C° 0,7 mm 1 m/s 700 mmHg 57%
    02:00 +29°C° 0,1 mm 1 m/s 700 mmHg 58%
    03:00 +29°C° 0,1 mm 1 m/s 700 mmHg 59%
    04:00 +28°C° 0,1 mm 1 m/s 700 mmHg 61%
    05:00 +29°C° 0,1 mm 2 m/s 700 mmHg 57%
    06:00 +30°C° 0,1 mm 2 m/s 700 mmHg 54%
    07:00 +30°C° 0,1 mm 2 m/s 701 mmHg 50%
    08:00 +33°C° 0,3 mm 3 m/s 701 mmHg 47%
    09:00 +34°C° 0,3 mm 4 m/s 701 mmHg 44%
    10:00 +35°C° 0,3 mm 5 m/s 701 mmHg 41%
    11:00 +35°C° 0,6 mm 6 m/s 700 mmHg 39%
    12:00 +35°C° 0,6 mm 7 m/s 700 mmHg 38%
    13:00 +35°C° 0,6 mm 8 m/s 700 mmHg 36%
    14:00 +35°C° 0,1 mm 8 m/s 700 mmHg 35%
    15:00 +35°C° 0,1 mm 8 m/s 700 mmHg 34%
    16:00 +35°C° 0,1 mm 8 m/s 700 mmHg 34%
    17:00 +34°C° 0,1 mm 8 m/s 700 mmHg 34%
    18:00 +33°C° 0,1 mm 8 m/s 701 mmHg 35%
    19:00 +32°C° 0,1 mm 7 m/s 702 mmHg 35%
    20:00 +30°C° 0,3 mm 7 m/s 702 mmHg 36%
    21:00 +29°C° 0,3 mm 7 m/s 703 mmHg 37%
    22:00 +29°C° 0,3 mm 7 m/s 704 mmHg 37%
    23:00 +28°C° 0,3 mm 7 m/s 704 mmHg 39%
    Mostrar mais

    XHprof extension not loaded